Location: Bourguignon
(49.5441°N, 3.1585°E)
Time: 05:43:27
(UTC+00:00)

Okean O Rocket - Pass Details

Date: 15 May 2026
Orbit: 614 x 633 km, 98.0° (Epoch: 6 June)

Event Time Altitude Azimuth Distance (km) Brightness Sun altitude
Exits shadow 21:29:46 - 206° (SSW) 2,219 4.1 -15.3°
Reaches altitude 10° 21:30:30 10° 211° (SSW) 1,970 3.9 -15.3°
Maximum altitude 21:34:00 24° 266° (W) 1,277 3.5 -15.6°
Drops below altitude 10° 21:37:32 10° 322° (NW) 1,985 5.5 -15.9°
Sets 21:40:05 0° 336° (NNW) 2,897 6.8 -16.1°
